Regional Weather Roundup
Issued by NWS Albany, NY

Current Version | Previous Version | Text Only | Print | Product List | Glossary On
Versions: 1 2 3 4 5 6 7 8 9 10 11 12 13 14 15 16 17 18 19 20 21 22 23 24 25 26 27 28 29 30 31 32 33 34 35 36 37 38 39 40 41 42 43 44 45 46 47 48 49 50
000
ASUS41 KALY 052310
RWRALY

NEW YORK STATE HOURLY WEATHER ROUNDUP
NATIONAL WEATHER SERVICE ALBANY NY
600 PM EST THU DEC 05 2019

NOTE: "FAIR" INDICATES FEW OR NO CLOUDS BELOW 12,000 FEET WITH NO
SIGNIFICANT WEATHER AND/OR NO OBSTRUCTIONS TO VISIBILITY.

NYZ032-033-038>043-046>054-057>066-NYZ062>081-082-084-060000-
EAST


CITY           SKY/WX    TMP DP  RH WIND       PRES   REMARKS
ALBANY         CLOUDY    33  20  58 NW13G22   29.90R WCI  24
GLENS FALLS    CLOUDY    30  14  51 W9        29.86R WCI  22
POUGHKEEPSIE   CLOUDY    36  20  52 W10       29.90R WCI  28
NEWBURGH       MOCLDY    32  27  80 W14       29.89R WCI  22
MONTGOMERY     MOCLDY    33  22  63 W13G18    29.90R WCI  24
WHITE PLAINS   CLOUDY    36  21  54 NW17G29   29.90R WCI  26
ISLIP          MOCLDY    38  24  57 W13       29.92R WCI  30
NEW YORK CITY  CLOUDY    40  23  50 W12G21    29.94R WCI  33
CENTRAL PARK   CLOUDY    39  22  50 W8G16     29.96R WCI  33
$$

NYZ005>009-017-018-044>046-055-056-060000-
CENTRAL


CITY           SKY/WX    TMP DP  RH WIND       PRES   REMARKS
FULTON         CLOUDY    31  18  58 NW20G30   29.97R WCI  19
SYRACUSE       CLOUDY    32  22  66 W15       29.96R WCI  22
ROME           CLOUDY    30  25  81 W13       29.95R WCI  20
ELMIRA         CLOUDY    33  21  61 W13G20    29.98R WCI  24
BINGHAMTON     CLOUDY    27  20  75 W14G24    29.90R WCI  16
MONTICELLO     FLURRIES  28  24  85 W13G26    29.88R WCI  17
$$

NYZ026>034-041>043-087-060000-
NORTH


CITY           SKY/WX    TMP DP  RH WIND       PRES   REMARKS
WATERTOWN      MOCLDY    29  19  66 W12       29.95R WCI  19
FORT DRUM      NOT AVBL
OGDENSBURG     CLOUDY    27  18  69 W10G17    29.90R WCI  17
MASSENA        CLOUDY    27  15  61 W12       29.91R WCI  17
SARANAC LAKE   FLURRIES  20  13  74 W8G21     29.79R WCI  10
PLATTSBURGH    MOCLDY    27  14  58 W10G17    29.84R WCI  17
$$

NYZ001>004-010>016-019>021-085-060000-
WEST


CITY           SKY/WX    TMP DP  RH WIND       PRES   REMARKS
NIAGARA FALLS  CLOUDY    30  23  75 W9        30.02R WCI  22
BUFFALO        CLOUDY    32  23  69 W12       30.01R WCI  23
DUNKIRK        CLOUDY    34  21  59 W10       30.05R WCI  26
JAMESTOWN      CLOUDY    28  23  81 W10       30.01R WCI  19
WELLSVILLE     CLOUDY    26  22  84 NW15      29.97R WCI  14
ROCHESTER      MOCLDY    31  19  61 NW9       30.00R WCI  23
PENN YAN       CLOUDY    31  23  72 W8        29.98R WCI  23
$$

             KEY
       WCI = WIND CHILL INDEX
       VSB = VISIBILITY
       HX  = HEAT INDEX
$$



USA.gov is the U.S. government's official web portal to all federal, state and local government web resources and services.